Homer, AK

3:44 AM AKST on November 21, 2017 (GMT -0900)
Homer

Weather History for PAHO - July, 2014

Change the Weather History Date:

Thursday, July 24, 2014

  Actual Average Record
Temperature  
Mean Temperature 54 °F -  
Max Temperature 62 °F 61 °F 72 °F (2013)
Min Temperature 48 °F 47 °F 37 °F (1946)
Degree Days  
Heating Degree Days 11    
Growing Degree Days 4 (Base 50)    
Moisture  
Dew Point 48 °F    
Average Humidity 76    
Maximum Humidity 88    
Minimum Humidity 64    
Precipitation  
Precipitation 0.17 in - - ()
Sea Level Pressure  
Sea Level Pressure 29.86 in    
Wind  
Wind Speed 4 mph (West)    
Max Wind Speed 12 mph    
Max Gust Speed -    
Visibility 10 miles    
Events Rain    
Averages and records for this station are not official NWS values.
T = Trace of Precipitation, MM = Missing Value Source: NWS Daily Summary

Daily Weather History Graph

Daily Weather History Graph

Search for Another Location

Airport or City:

Trip Planner

Search our weather history database for the weather conditions in past years. The results will help you decide how hot, cold, wet, or windy it might be!

Date:

Astronomy

Jul. 24, 2014 Rise Set
Actual Time 5:31 AM AKDT 10:51 PM AKDT
Civil Twilight 4:25 AM AKDT 11:56 PM AKDT
Nautical Twilight 2:44 AM AKDT 1:40 AM AKDT
Astronomical Twilight Sun does not rise Sun does not rise
Moon 3:56 AM AKDT (7/24) 9:02 PM AKDT (7/24)
Length of Visible Light 19h 30m
Length of Day
17h 20m
Waning Crescent, 4% of the Moon is Illuminated
Jul 24
Waning Crescent
Jul 26
New
Aug 3
First Quarter
Aug 10
Full
Aug 17
Last Quarter

Hourly Weather History & Observations

Time (AKDT) Temp. Dew Point Humidity Pressure Visibility Wind Dir Wind Speed Gust Speed Precip Events Conditions
12:53 AM - - N/A% 29.87 in - North - - N/A   Unknown
1:53 AM 52.0 °F 46.9 °F 83% 29.87 in 10.0 mi Calm Calm - N/A   Partly Cloudy
2:53 AM 50.0 °F 45.0 °F 83% 29.87 in 10.0 mi Calm Calm - N/A   Clear
3:53 AM 50.0 °F 46.0 °F 86% 29.87 in 10.0 mi Calm Calm - N/A   Clear
4:53 AM 50.0 °F 46.0 °F 86% 29.86 in 10.0 mi Calm Calm - N/A   Mostly Cloudy
5:53 AM 48.9 °F 45.0 °F 86% 29.86 in 10.0 mi Calm Calm - N/A   Clear
6:53 AM 53.1 °F 48.0 °F 83% 29.86 in 10.0 mi Calm Calm - N/A   Partly Cloudy
7:53 AM 55.9 °F 48.9 °F 77% 29.86 in 10.0 mi West 5.8 mph - N/A   Mostly Cloudy
8:25 AM 55.4 °F 51.8 °F 88% 29.86 in 10.0 mi West 6.9 mph - N/A   Mostly Cloudy
8:53 AM 57.0 °F 51.1 °F 81% 29.86 in 10.0 mi West 5.8 mph - N/A   Overcast
9:53 AM 60.1 °F 48.9 °F 67% 29.86 in 10.0 mi WSW 4.6 mph - N/A   Overcast
10:53 AM 60.1 °F 48.0 °F 64% 29.86 in 10.0 mi Variable 3.5 mph - N/A   Overcast
11:53 AM 60.1 °F 48.9 °F 67% 29.85 in 10.0 mi West 10.4 mph - N/A   Overcast
12:53 PM 59.0 °F 48.9 °F 69% 29.86 in 10.0 mi West 11.5 mph - N/A   Overcast
1:53 PM 57.9 °F 48.0 °F 70% 29.86 in 10.0 mi West 11.5 mph - N/A   Overcast
2:53 PM 59.0 °F 48.0 °F 67% 29.86 in 10.0 mi West 11.5 mph - N/A   Overcast
3:53 PM 59.0 °F 46.9 °F 64% 29.85 in 10.0 mi West 9.2 mph - N/A   Overcast
4:53 PM 59.0 °F 46.9 °F 64% 29.85 in 10.0 mi West 8.1 mph - N/A   Overcast
5:53 PM 57.9 °F 46.0 °F 65% 29.84 in 10.0 mi West 10.4 mph - N/A   Overcast
6:53 PM 55.9 °F 48.0 °F 75% 29.85 in 10.0 mi West 11.5 mph - 0.00 in Rain Light Rain
7:53 PM 55.9 °F 48.9 °F 77% 29.85 in 10.0 mi West 8.1 mph - 0.03 in Rain Light Rain
8:53 PM 55.0 °F 48.9 °F 80% 29.85 in 7.0 mi West 5.8 mph - 0.04 in Rain Rain
9:53 PM 55.0 °F 50.0 °F 83% 29.85 in 7.0 mi West 5.8 mph - 0.06 in Rain Light Rain
10:53 PM 55.0 °F 50.0 °F 83% 29.84 in 8.0 mi Calm Calm - 0.02 in Rain Light Rain
11:53 PM 54.0 °F 50.0 °F 86% 29.84 in 10.0 mi Calm Calm - 0.02 in Rain Light Rain